Location: Bismarck
(46.7731°N, 100.8200°W)
Time: 02:38:17
(UTC-05:00)

ISS - Visible Passes

Search period start: 26 October 2014 00:00
Search period end: 04 November 2014 23:00
Orbit: 412 x 416 km, 51.6° (Epoch: 26 October)

Date Brightness Start Highest point End Pass type
(mag) Time Alt. Az. Time Alt. Az. Time Alt. Az.
26 Oct -0.6 20:10:54 10° W 20:13:12 17° SW 20:15:30 10° S visible
27 Oct -1.2 19:21:13 10° W 19:24:07 28° SW 19:27:00 10° SSE visible
29 Oct 0.0 19:20:26 10° WSW 19:21:50 12° SW 19:23:14 10° SSW visible
